DECAYED

SL-27 R/B, 39195 (Decayed)

Orbit data source: Space-Track

SL-27 R/B, 39195 was space debris in LEO originally from a launch on Thu, 27 Jun 2013 UTC launched from the Tyuratam Missile And Space Complex (TTMTR). Debris objects in space refer to the collection of defunct objects orbiting the Earth. Examples of debris include non-operational satellites, rocket bodies, and fragments generated from explosions, collisions, or faulty payload assembly.

Not visible in the next 10 days
Identifier
39195, 2013-032B
Orbit
Decayed
Country
Flag of CISCIS
Related business
Manufacturer
NPOMA?
Mission
Decayed spacecraft
Bus & Motor
STRELA APB, RD-0237
Mass
~725 kg wet, ~725 kg dry
Launch date (UTC)
2013-06-27 (13 years ago)
Launch vehicle
Unknown
Launch site
Tyuratam Missile And Space Complex (TTMTR)
Object type
Payload
Rocket body
Debris
Shape & HBR
Cyl, 1.2 m
Radar Cross Section
4.712 m², Large (>1 m²)

Expand to show TLE details & history
Last TLE update: 8 months ago

TLE from 8 months ago
0 SL-27 R/B
1 39195U 13032B   25294.50380973  .08964599  16512-5  10190-3 0  9997
2 39195  74.6759 321.8565 0010185 263.8148  96.1960 16.49795012690644
Epoch: 2025-10-21T12:05Z
TLE epoch observation values (Epoch: 2025-10-21T12:05:29.160Z)
Latitude
-0.00008°
Longitude
110.29415°
Altitude
143.502 km
Speed
7.82 km/s
True Right ascension
21h 27m 25s
True Declination
0° 00' 00"
Sunlit
Object was in full shadow at epoch
Visualization orbit readout
Latitude
Unknown
Longitude
Unknown
Altitude
Unknown
Speed
Unknown
Apparent Right ascension
Unknown
Apparent Declination
Unknown
Sunlit
N/A
Visualization observer readout
Local Sidereal Time
09:37:03
Azimuth
Unknown
Elevation
Unknown
Doppler factor
Unknown
Orbital elements
Apogee altitude
143.846 km
Perigee altitude
130.574 km
Semi-major axis
6,515.347 km
Eccentricity
0.00102
Inclination
74.6759°
RAAN
321.8565°
Arg. of periapsis
263.8148°
True anomaly
96.31201°
Mean anomaly
96.196°
Eccentric anomaly
96.25401°
Mean motion
4.12702 °/min
Orbital period
87.23 mins
BSTAR
0.0001019
Loading maneuver chart data...
Computing Atmospheric mass density...
Loading historical data...
Loading historical data...
Loading historical data...
Loading historical data...
Loading historical data...
Loading historical data...
Loading historical data...
Other satellites on launch #32 in the year 2013 (2013-06-27 UTC)

Documentation

Showing up to 5 results
|